Simultaneous Nadir Overpasses (SNOs) Predictions

Prediction of SNOs between NOAA-19 and NPP Satellite Orbit:

Table of predicted SNOs for the next 14.0 days since TLE Epoch: 11/2/2013
Index Date (NOAA-19) Time (NOAA-19) Lat,Lon (NOAA-19) SZA (NOAA-19 ) Date (NPP) Time (NPP) Lat,Lon (NPP) SZA (NPP ) Distance(km) Time Diff (sec)
1 11/11/2013 15:29:57 -80.97, 73.86 78.42 11/11/2013 15:30:59 -80.97, 73.94 78.46 1.50 62
2 11/11/2013 16:20:53 80.97,-118.60 101.56 11/11/2013 16:21:43 80.96,-118.48 101.52 2.11 50
3 11/11/2013 17:12:00 -80.96, 48.80 78.46 11/11/2013 17:12:28 -80.96, 48.90 78.48 1.75 28
4 11/11/2013 18:02:56 80.95,-143.66 101.52 11/11/2013 18:03:12 80.95,-143.53 101.49 2.36 16
5 11/11/2013 18:54:03 -80.95, 23.74 78.50 11/11/2013 18:53:57 -80.95, 23.85 78.51 2.00 6
6 11/11/2013
